Weather History for Denver, CO

Change the Weather History Date:

Saturday, December 24, 2011

  Actual Average Record
Temperature  
Mean Temperature 24 °F 30 °F  
Max Temperature 37 °F 42 °F 70 °F (1955)
Min Temperature 11 °F 17 °F -25 °F (1876)
Degree Days  
Heating Degree Days 41 35  
Month to date heating degree days 981 842  
Since 1 July heating degree days 2233 2224  
Cooling Degree Days 0 0  
Month to date cooling degree days 0 0  
Year to date cooling degree days 964 769  
Moisture  
Dew Point 10 °F    
Average Humidity 49    
Maximum Humidity 61    
Minimum Humidity 36    
Precipitation  
Precipitation 0.00 in 0.01 in 2.00 in (1982)
Month to date precipitation 0.78 0.28  
Year to date precipitation 17.31 14.23  
Snow  
Snow 0.00 in - - ()
Month to date snowfall 16.5  
Since 1 July snowfall 29.5  
Snow Depth 3.00 in    
Sea Level Pressure  
Sea Level Pressure 30.45 in    
Wind  
Wind Speed 10 mph (SSW)    
Max Wind Speed 31 mph    
Max Gust Speed 0 mph    
Visibility 10 miles    
Events      
T = Trace of Precipitation, MM = Missing Value Source: NWS Daily Summary

Daily Weather History Graph

Daily Weather History Graph

Search for Another Location

Airport:

Trip Planner

Search our weather history database for the weather conditions in past years. The results will help you decide how hot, cold, wet, or windy it might be!

Date:

Astronomy

Dec. 24, 2011 Rise Set
Actual Time 7:17 AM MST 4:38 PM MST
Civil Twilight 6:47 AM MST 5:09 PM MST
Nautical Twilight 6:13 AM MST 5:43 PM MST
Astronomical Twilight 5:40 AM MST 6:16 PM MST
Moon 7:08 AM MST (12/24) 4:54 PM MST (12/24)
Length of Visible Light 10h 21m
Length of Day
9h 20m
New Moon, 0% of the Moon is Illuminated
Dec 24
New Moon
Dec 31
First Quarter
Jan 9
Full
Jan 16
Last Quarter
Jan 23
New

Hourly Weather History & Observations

Time (MST) Temp. Windchill Dew Point Humidity Pressure Visibility Wind Dir Wind Speed Gust Speed Precip Events Conditions
12:53 AM 25.0 °F 13.1 °F 10.9 °F 55% 30.39 in 10.0 mi SW 13.8 mph - N/A   Clear
1:53 AM 21.0 °F 7.1 °F 8.1 °F 57% 30.40 in 10.0 mi SW 16.1 mph - N/A   Clear
2:53 AM 25.0 °F 12.6 °F 10.0 °F 53% 30.41 in 10.0 mi SW 15.0 mph - N/A   Clear
3:53 AM 23.0 °F 10.6 °F 9.0 °F 55% 30.41 in 10.0 mi SW 13.8 mph - N/A   Clear
4:53 AM 21.0 °F 8.1 °F 8.1 °F 57% 30.44 in 10.0 mi SW 13.8 mph - N/A   Clear
5:53 AM 23.0 °F 11.1 °F 8.1 °F 53% 30.47 in 10.0 mi SW 12.7 mph - N/A   Clear
6:53 AM 19.9 °F 11.1 °F 7.0 °F 57% 30.52 in 10.0 mi WSW 6.9 mph - N/A   Partly Cloudy
7:53 AM 19.0 °F 7.5 °F 7.0 °F 59% 30.52 in 10.0 mi SSW 10.4 mph - N/A   Partly Cloudy
8:53 AM 25.0 °F 13.6 °F 9.0 °F 51% 30.50 in 10.0 mi SW 12.7 mph - N/A   Partly Cloudy
9:53 AM 27.0 °F 15.2 °F 10.0 °F 49% 30.50 in 10.0 mi SW 15.0 mph - N/A   Partly Cloudy
10:53 AM 30.0 °F 20.5 °F 12.0 °F 47% 30.48 in 10.0 mi SSW 11.5 mph - N/A   Clear
11:53 AM 30.0 °F 22.4 °F 16.0 °F 56% 30.45 in 10.0 mi South 8.1 mph - N/A   Partly Cloudy
12:53 PM 30.9 °F 23.5 °F 17.1 °F 57% 30.42 in 10.0 mi SSE 8.1 mph - N/A   Scattered Clouds
1:53 PM 30.9 °F 23.5 °F 17.1 °F 57% 30.42 in 10.0 mi South 8.1 mph - N/A   Scattered Clouds
2:53 PM 30.0 °F 23.2 °F 16.0 °F 56% 30.39 in 10.0 mi South 6.9 mph - N/A   Scattered Clouds
3:53 PM 36.0 °F 29.0 °F 14.0 °F 41% 30.38 in 10.0 mi SW 9.2 mph - N/A   Scattered Clouds
4:53 PM 36.0 °F 28.0 °F 15.1 °F 43% 30.40 in 10.0 mi SSW 11.5 mph - N/A   Mostly Cloudy
5:53 PM 30.0 °F 22.4 °F 12.0 °F 47% 30.42 in 10.0 mi SW 8.1 mph - N/A   Scattered Clouds
6:53 PM 23.0 °F 14.7 °F 7.0 °F 50% 30.48 in 10.0 mi SSW 6.9 mph - N/A   Scattered Clouds
7:53 PM 30.0 °F 22.4 °F 6.1 °F 36% 30.47 in 10.0 mi SSW 8.1 mph - N/A   Scattered Clouds
8:53 PM 26.1 °F 19.4 °F 3.9 °F 39% 30.48 in 10.0 mi SW 5.8 mph - N/A   Partly Cloudy
9:53 PM 12.0 °F - 1.0 °F 61% 30.57 in 10.0 mi Calm Calm - N/A   Partly Cloudy
10:53 PM 19.4 °F - 3.2 °F 49% 30.45 in 10.0 mi Calm Calm - N/A   Partly Cloudy
11:53 PM 28.0 °F 19.3 °F 5.0 °F 38% 30.54 in 10.0 mi WSW 9.2 mph - N/A   Partly Cloudy